EW6753 Weather Reports


Display with metric or nautical units.
time (UTC)temp
F
wind
direction
speed
MPH
gust
MPH
rain 1hr
in
rain 24hr
in
rain mn
in
humidity
%
barometer
mb
20240621202503 71 85 1.0 3.0 0.00 0.16 0.16 90 1020.7
20240621202003 71 94 1.0 4.0 0.00 0.16 0.16 89 1020.6
20240621201503 71 105 1.0 6.0 0.00 0.16 0.16 90 1020.6
20240621201002 71 72 1.0 6.0 0.00 0.16 0.16 89 1020.6
20240621200503 71 60 3.0 9.0 0.00 0.17 0.16 89 1020.5
20240621200003 71 61 4.0 12.0 0.00 0.17 0.16 89 1020.4
20240621195523 71 64 3.0 12.0 0.00 0.17 0.16 89 1020.4
20240621195003 72 70 2.0 9.0 0.00 0.17 0.16 90 1020.4
20240621194502 71 62 3.0 9.0 0.00 0.17 0.16 89 1020.6
20240621194003 71 54 3.0 8.0 0.00 0.17 0.16 89 1020.6
20240621193503 71 60 3.0 8.0 0.00 0.17 0.16 89 1020.6
20240621193002 71 62 3.0 10.0 0.00 0.17 0.16 89 1020.8
20240621192503 71 64 3.0 10.0 0.00 0.17 0.16 88 1021.0
20240621192002 71 66 2.0 5.0 0.00 0.17 0.16 89 1021.2
20240621191503 71 60 2.0 5.0 0.00 0.17 0.16 89 1021.3
20240621191003 71 61 2.0 5.0 0.00 0.17 0.16 88 1021.4
20240621190503 71 58 2.0 6.0 0.00 0.17 0.16 87 1021.5
20240621190003 71 55 1.0 6.0 0.00 0.17 0.16 87 1021.7
20240621185503 71 61 1.0 4.0 0.00 0.17 0.16 87 1021.8
20240621185024 71 54 1.0 4.0 0.00 0.17 0.16 87 1021.9
20240621184502 71 61 2.0 7.0 0.00 0.17 0.16 87 1021.9
20240621184003 71 79 2.0 7.0 0.00 0.17 0.16 87 1022.0
20240621183502 71 103 1.0 4.0 0.00 0.17 0.16 87 1021.9
20240621183003 71 108 1.0 3.0 0.00 0.17 0.16 87 1022.0
20240621182502 71 107 1.0 7.0 0.00 0.17 0.16 87 1022.0
20240621182003 71 91 2.0 7.0 0.00 0.17 0.16 87 1022.1
20240621181502 71 80 1.0 5.0 0.00 0.17 0.16 88 1022.0
20240621181024 71 90 1.0 3.0 0.00 0.17 0.16 88 1022.1
20240621180524 71 65 1.0 7.0 0.00 0.17 0.16 88 1021.9
20240621180003 71 63 2.0 7.0 0.00 0.17 0.16 87 1021.8
20240621175503 71 70 2.0 6.0 0.00 0.17 0.16 88 1021.9
20240621175002 71 70 2.0 6.0 0.00 0.18 0.16 87 1021.9
20240621174524 71 76 2.0 6.0 0.00 0.18 0.16 87 1022.0
20240621174002 71 73 2.0 8.0 0.00 0.18 0.16 87 1022.0
20240621173503 71 72 2.0 8.0 0.00 0.18 0.16 88 1022.1
20240621173002 71 76 2.0 6.0 0.00 0.18 0.16 88 1022.2
20240621172503 71 80 1.0 6.0 0.00 0.18 0.16 88 1022.0
20240621172002 71 98 1.0 4.0 0.00 0.18 0.16 88 1022.1
20240621171503 70 73 1.0 10.0 0.00 0.18 0.16 89 1022.2
20240621171002 71 68 2.0 10.0 0.00 0.18 0.16 88 1022.3
20240621170503 71 69 2.0 7.0 0.00 0.18 0.16 88 1022.2
20240621170002 71 68 2.0 7.0 0.00 0.18 0.16 89 1022.1
20240621165503 71 56 3.0 8.0 0.00 0.18 0.16 89 1022.2
20240621165003 71 52 3.0 8.0 0.00 0.18 0.16 88 1022.2
20240621164502 71 61 3.0 8.0 0.00 0.18 0.16 89 1022.2
20240621164003 71 65 3.0 7.0 0.00 0.18 0.16 90 1022.2
20240621163503 70 55 3.0 7.0 0.00 0.18 0.16 91 1022.2
20240621163002 70 56 2.0 7.0 0.00 0.18 0.16 90 1022.3
20240621162503 70 51 2.0 8.0 0.00 0.18 0.16 92 1022.4
20240621162002 69 57 3.0 8.0 0.00 0.18 0.16 93 1022.4
20240621161504 69 69 3.0 8.0 0.00 0.18 0.16 93 1022.5
20240621161002 68 60 3.0 8.0 0.00 0.18 0.16 93 1022.6
20240621160504 68 46 3.0 9.0 0.00 0.18 0.16 94 1022.5
20240621160003 68 32 3.0 9.0 0.00 0.18 0.16 94 1022.6
20240621155503 68 16 2.0 5.0 0.00 0.18 0.16 94 1022.7
20240621155003 68 31 2.0 5.0 0.00 0.18 0.16 95 1022.6
20240621154523 68 43 2.0 7.0 0.00 0.18 0.16 95 1022.5
20240621154003 68 43 3.0 7.0 0.00 0.18 0.16 95 1022.5
20240621153503 68 47 2.0 6.0 0.00 0.18 0.16 95 1022.4
20240621153003 67 57 2.0 6.0 0.00 0.18 0.16 96 1022.6
20240621152503 67 60 2.0 7.0 0.00 0.18 0.16 96 1022.8
20240621152003 67 63 2.0 7.0 0.00 0.18 0.16 96 1022.9
20240621151503 67 41 2.0 6.0 0.00 0.18 0.16 96 1023.0
20240621151003 66 24 1.0 6.0 0.00 0.18 0.16 96 1023.1
20240621150503 67 35 1.0 3.0 0.00 0.18 0.16 96 1023.1
20240621150003 66 41 1.0 3.0 0.00 0.18 0.16 96 1023.0
20240621145502 66 50 1.0 3.0 0.00 0.18 0.16 96 1023.0
20240621145003 66 56 1.0 4.0 0.00 0.18 0.16 96 1022.9
20240621144503 66 52 2.0 7.0 0.00 0.18 0.16 96 1022.9
20240621144002 66 37 2.0 7.0 0.00 0.18 0.16 96 1023.0
20240621143503 66 43 2.0 4.0 0.00 0.18 0.16 96 1023.1
20240621143002 66 62 2.0 4.0 0.00 0.18 0.16 96 1023.0
20240621142503 66 65 1.0 4.0 0.00 0.18 0.16 96 1023.1
20240621142002 66 70 1.0 4.0 0.00 0.18 0.16 96 1023.1
20240621141503 66 70 1.0 3.0 0.00 0.18 0.16 96 1023.2
20240621141003 66 70 1.0 3.0 0.00 0.18 0.16 96 1023.4
20240621140502 66 70 1.0 3.0 0.00 0.18 0.16 96 1023.3
20240621140003 66 70 0.0 2.0 0.00 0.18 0.16 96 1023.4
20240621135503 66 70 1.0 3.0 0.00 0.18 0.16 96 1023.6
20240621135003 66 69 1.0 3.0 0.00 0.18 0.16 96 1023.2
20240621134503 66 65 1.0 3.0 0.00 0.18 0.16 96 1023.3
20240621134003 66 64 1.0 3.0 0.00 0.18 0.16 96 1023.4
20240621133502 66 59 1.0 3.0 0.01 0.18 0.16 96 1023.4
20240621133003 66 60 1.0 5.0 0.01 0.18 0.16 96 1023.2
20240621132502 65 74 1.0 5.0 0.01 0.18 0.16 96 1023.1
20240621132003 65 87 1.0 5.0 0.01 0.18 0.16 96 1022.9
20240621131503 65 81 1.0 4.0 0.01 0.18 0.16 96 1022.7
20240621131003 65 72 2.0 5.0 0.02 0.18 0.16 96 1022.4
20240621130503 65 76 2.0 9.0 0.02 0.18 0.16 96 1022.2
20240621130003 65 81 3.0 9.0 0.02 0.18 0.16 96 1022.0
20240621125524 65 79 2.0 7.0 0.03 0.18 0.16 96 1022.0
20240621125003 65 65 2.0 6.0 0.04 0.18 0.16 96 1022.1
20240621124503 65 80 2.0 6.0 0.04 0.18 0.16 96 1022.2
20240621124003 65 96 2.0 4.0 0.04 0.18 0.16 96 1022.4
20240621123503 65 78 2.0 7.0 0.04 0.17 0.15 96 1022.4
20240621123003 65 67 3.0 8.0 0.05 0.17 0.15 96 1022.3
20240621122502 64 66 3.0 11.0 0.06 0.17 0.15 96 1022.3
20240621122004 65 63 3.0 11.0 0.07 0.17 0.15 96 1022.4
20240621121503 65 56 2.0 11.0 0.09 0.17 0.15 96 1022.6
20240621121003 64 67 2.0 11.0 0.09 0.16 0.14 96 1022.8
20240621120504 64 74 2.0 8.0 0.10 0.16 0.14 96 1023.0
20240621120002 64 69 2.0 6.0 0.10 0.15 0.13 96 1023.2
20240621115503 65 67 2.0 6.0 0.11 0.15 0.13 95 1023.4
20240621115003 65 70 1.0 7.0 0.11 0.14 0.12 95 1023.6
20240621114523 65 63 1.0 7.0 0.12 0.14 0.12 95 1023.6
20240621114004 65 55 1.0 3.0 0.12 0.14 0.12 95 1023.8
20240621113503 65 65 1.0 4.0 0.11 0.13 0.11 95 1024.0
20240621113003 65 66 1.0 4.0 0.10 0.12 0.10 95 1024.1
20240621112524 65 69 0.0 2.0 0.09 0.11 0.09 95 1024.3
20240621112003 65 0 0.0 0.0 0.08 0.10 0.08 95 1024.3
20240621111503 65 0 0.0 0.0 0.06 0.08 0.06 95 1024.4
20240621111002 65 60 0.0 3.0 0.05 0.07 0.05 95 1024.4
20240621110503 65 58 1.0 3.0 0.04 0.06 0.04 95 1024.5
20240621110002 65 57 1.0 3.0 0.02 0.04 0.02 95 1024.4
20240621105503 65 57 0.0 2.0 0.02 0.04 0.02 94 1024.4
20240621105003 65 57 0.0 3.0 0.00 0.02 0.01 94 1024.4
20240621104503 65 61 1.0 3.0 0.00 0.02 0.00 94 1024.4
20240621104003 65 64 0.0 3.0 0.00 0.02 0.00 94 1024.5
20240621103502 65 73 0.0 2.0 0.00 0.02 0.00 94 1024.5
20240621103003 65 73 0.0 3.0 0.00 0.02 0.00 94 1024.5
20240621102503 65 73 0.0 3.0 0.00 0.02 0.00 94 1024.6
20240621102003 65 74 0.0 3.0 0.00 0.02 0.00 94 1024.7
20240621101502 65 75 0.0 3.0 0.00 0.02 0.00 94 1024.8
20240621101003 65 74 0.0 1.0 0.00 0.02 0.00 94 1024.8
20240621100504 65 74 0.0 2.0 0.00 0.02 0.00 94 1024.6
20240621100003 65 72 1.0 4.0 0.00 0.02 0.00 94 1024.4
20240621095524 65 71 1.0 4.0 0.00 0.02 0.00 94 1024.2
20240621095002 65 75 1.0 3.0 0.00 0.02 0.00 94 1024.0
20240621094503 65 76 1.0 3.0 0.00 0.02 0.00 94 1024.0
20240621094003 65 68 1.0 4.0 0.00 0.02 0.00 94 1023.9
20240621093503 65 69 1.0 4.0 0.00 0.02 0.00 94 1023.9
20240621093002 65 67 1.0 4.0 0.00 0.02 0.00 93 1024.0
20240621092504 65 58 1.0 4.0 0.00 0.02 0.00 93 1023.9
20240621092003 65 49 1.0 4.0 0.00 0.02 0.00 93 1023.9
20240621091504 65 58 1.0 4.0 0.00 0.02 0.00 93 1024.0
20240621091003 65 80 1.0 6.0 0.00 0.02 0.00 93 1023.9
20240621090503 65 77 1.0 6.0 0.00 0.02 0.00 93 1023.9
20240621090003 65 64 1.0 4.0 0.00 0.02 0.00 93 1023.9
20240621085503 65 62 1.0 4.0 0.00 0.02 0.00 93 1023.9
20240621085002 65 64 0.0 2.0 0.00 0.02 0.00 93 1024.2
20240621084503 65 64 0.0 3.0 0.00 0.02 0.00 93 1024.3
20240621084003 65 71 1.0 5.0 0.00 0.02 0.00 93 1024.4
20240621083503 65 75 1.0 5.0 0.00 0.02 0.00 93 1024.5
20240621083003 65 74 0.0 3.0 0.00 0.02 0.00 93 1024.5
20240621082503 65 65 0.0 3.0 0.00 0.02 0.00 93 1024.6
20240621082003 65 68 1.0 3.0 0.00 0.02 0.00 93 1024.5
20240621081502 65 70 1.0 3.0 0.00 0.02 0.00 93 1024.7
20240621081003 65 71 0.0 2.0 0.00 0.02 0.00 93 1024.8
20240621080503 65 64 0.0 1.0 0.00 0.02 0.00 93 1024.8
20240621080024 65 63 0.0 3.0 0.00 0.02 0.00 93 1024.7
20240621075504 65 62 0.0 3.0 0.00 0.02 0.00 93 1024.7
20240621075003 65 57 0.0 1.0 0.00 0.02 0.00 93 1024.7
20240621074503 65 57 0.0 3.0 0.00 0.02 0.00 93 1024.8
20240621074003 65 53 1.0 4.0 0.00 0.02 0.00 93 1024.7
20240621073524 65 53 1.0 4.0 0.00 0.02 0.00 93 1024.7
20240621073003 65 57 1.0 3.0 0.00 0.02 0.00 93 1024.8
20240621072503 65 60 1.0 3.0 0.00 0.02 0.00 92 1024.8
20240621072024 65 63 1.0 3.0 0.00 0.02 0.00 92 1024.8
20240621071503 65 63 0.0 3.0 0.00 0.02 0.00 92 1024.9
20240621071003 65 0 0.0 0.0 0.00 0.02 0.00 92 1025.0
20240621063003 66 63 1.0 4.0 0.00 0.02 0.00 91 1024.8
20240621062524 66 58 0.0 4.0 0.00 0.02 0.00 90 1024.9
20240621062003 66 0 0.0 0.0 0.00 0.02 0.00 90 1025.0
20240621061503 66 0 0.0 0.0 0.00 0.02 0.00 90 1025.1
20240621061003 66 0 0.0 0.0 0.00 0.02 0.00 90 1025.3
20240621060525 66 0 0.0 0.0 0.00 0.02 0.00 90 1025.4
20240621060024 66 0 0.0 0.0 0.00 0.02 0.00 90 1025.6
20240621055503 66 0 0.0 0.0 0.00 0.02 0.00 90 1025.5
20240621055003 66 0 0.0 0.0 0.00 0.02 0.00 90 1025.6
20240621054503 66 0 0.0 0.0 0.00 0.02 0.00 90 1025.6
20240621054024 66 0 0.0 0.0 0.00 0.02 0.00 90 1025.7
20240621053503 66 5 0.0 2.0 0.00 0.02 0.00 90 1025.6
20240621053024 66 7 1.0 4.0 0.00 0.02 0.00 90 1025.5
20240621052524 66 10 1.0 4.0 0.00 0.02 0.00 90 1025.5
20240621052004 66 29 0.0 3.0 0.00 0.02 0.00 89 1025.5
20240621051502 66 0 0.0 0.0 0.00 0.02 0.00 89 1025.4
20240621051003 66 0 0.0 0.0 0.00 0.02 0.00 89 1025.4
20240621050503 66 0 0.0 0.0 0.00 0.02 0.00 88 1025.5
20240621050003 66 0 0.0 0.0 0.00 0.02 0.00 88 1025.5
20240621045503 66 0 0.0 0.0 0.00 0.02 0.02 88 1025.4
20240621045024 66 0 0.0 0.0 0.00 0.02 0.02 87 1025.5
20240621044504 66 0 0.0 0.0 0.00 0.02 0.02 87 1025.6
20240621044003 66 0 0.0 0.0 0.00 0.02 0.02 87 1025.7
20240621043503 66 67 0.0 2.0 0.00 0.02 0.02 87 1025.7
20240621043003 66 67 0.0 2.0 0.00 0.02 0.02 86 1025.5
20240621042503 66 0 0.0 0.0 0.00 0.02 0.02 86 1025.6
20240621042003 66 0 0.0 0.0 0.00 0.02 0.02 86 1025.7
20240621041503 66 0 0.0 0.0 0.00 0.02 0.02 86 1025.7
20240621041003 66 0 0.0 0.0 0.00 0.02 0.02 86 1025.6
20240621040503 66 0 0.0 0.0 0.00 0.02 0.02 86 1025.7
20240621040003 66 0 0.0 0.0 0.00 0.02 0.02 86 1025.6
20240621035503 66 0 0.0 0.0 0.00 0.02 0.02 86 1025.6
20240621035003 66 0 0.0 0.0 0.00 0.02 0.02 85 1025.6
20240621034504 66 0 0.0 0.0 0.00 0.02 0.02 85 1025.6
20240621034003 66 0 0.0 0.0 0.00 0.02 0.02 85 1025.6
20240621033503 66 0 0.0 0.0 0.00 0.02 0.02 85 1025.6
20240621033003 66 0 0.0 0.0 0.00 0.02 0.02 85 1025.7
20240621032503 66 66 0.0 2.0 0.00 0.02 0.02 85 1025.5
20240621032003 66 66 0.0 2.0 0.00 0.02 0.02 85 1025.5
20240621031503 65 86 0.0 3.0 0.00 0.02 0.02 86 1025.4
20240621031003 65 115 0.0 3.0 0.00 0.02 0.02 86 1025.2
20240621030503 65 111 0.0 2.0 0.00 0.02 0.02 86 1025.1
20240621030024 65 85 0.0 2.0 0.00 0.02 0.02 85 1025.1
20240621025503 65 81 0.0 2.0 0.00 0.02 0.02 85 1025.5
20240621025025 66 78 0.0 3.0 0.00 0.02 0.02 85 1025.6
20240621024503 66 127 1.0 3.0 0.00 0.02 0.02 85 1025.8
20240621024002 66 172 1.0 3.0 0.00 0.02 0.02 85 1025.6
20240621023524 66 167 0.0 3.0 0.00 0.02 0.02 85 1025.4
20240621023004 66 142 0.0 5.0 0.00 0.02 0.02 86 1025.5
20240621022503 66 130 0.0 5.0 0.00 0.02 0.02 86 1025.8
20240621022004 66 0 0.0 0.0 0.00 0.02 0.02 87 1026.0
20240621021503 66 0 0.0 0.0 0.00 0.02 0.02 87 1026.0
20240621021003 66 0 0.0 0.0 0.00 0.02 0.02 87 1026.1
20240621020504 67 0 0.0 0.0 0.00 0.02 0.02 87 1026.3
20240621020003 67 0 0.0 0.0 0.00 0.02 0.02 87 1026.3
20240621015503 67 0 0.0 0.0 0.00 0.02 0.02 87 1026.4
20240621015003 67 0 0.0 0.0 0.00 0.02 0.02 86 1026.5
20240621014503 67 0 0.0 0.0 0.00 0.02 0.02 86 1026.3
20240621014003 67 0 0.0 0.0 0.00 0.02 0.02 86 1026.2
20240621013503 67 0 0.0 0.0 0.00 0.02 0.02 85 1026.4
20240621013024 67 0 0.0 0.0 0.00 0.02 0.02 85 1026.4
20240621012503 68 0 0.0 0.0 0.00 0.02 0.02 85 1026.4
20240621012004 68 0 0.0 0.0 0.00 0.02 0.02 85 1026.5
20240621011524 68 0 0.0 0.0 0.00 0.02 0.02 85 1026.6
20240621011004 68 0 0.0 0.0 0.00 0.02 0.02 85 1026.6
20240621010503 68 0 0.0 0.0 0.00 0.02 0.02 85 1026.8
20240621010003 68 0 0.0 0.0 0.00 0.02 0.02 85 1026.9
20240621005525 68 0 0.0 0.0 0.00 0.02 0.02 85 1026.9
20240621005004 68 0 0.0 0.0 0.00 0.02 0.02 84 1027.0
20240621004504 68 0 0.0 0.0 0.00 0.02 0.02 84 1026.8
20240621004003 68 0 0.0 0.0 0.00 0.02 0.02 84 1026.8
20240621003525 68 0 0.0 0.0 0.00 0.02 0.02 84 1026.9
20240621003003 68 0 0.0 0.0 0.00 0.02 0.02 83 1026.9
20240621002503 68 0 0.0 0.0 0.00 0.02 0.02 82 1026.8
20240621002004 68 0 0.0 0.0 0.00 0.02 0.02 83 1027.0
20240621001503 68 0 0.0 0.0 0.00 0.02 0.02 83 1027.0
20240621001004 68 0 0.0 0.0 0.00 0.02 0.02 83 1026.9
20240621000504 68 0 0.0 0.0 0.00 0.02 0.02 83 1026.9
20240621000003 68 43 0.0 2.0 0.00 0.02 0.02 83 1026.9
20240620235503 68 43 0.0 2.0 0.00 0.02 0.02 83 1026.9
20240620235003 68 0 0.0 0.0 0.00 0.02 0.02 83 1026.7
20240620234504 68 44 0.0 2.0 0.00 0.02 0.02 83 1026.7
20240620234003 68 44 0.0 2.0 0.00 0.02 0.02 82 1026.6
20240620233503 68 46 0.0 3.0 0.00 0.02 0.02 83 1026.5
20240620233003 68 56 0.0 3.0 0.00 0.02 0.02 82 1026.5
20240620232503 68 59 1.0 2.0 0.00 0.02 0.02 82 1026.6
20240620232024 68 59 1.0 3.0 0.00 0.02 0.02 81 1026.5
20240620231504 68 59 1.0 4.0 0.00 0.02 0.02 81 1026.7
20240620231003 68 59 0.0 4.0 0.00 0.02 0.02 81 1026.6
20240620230504 68 78 0.0 4.0 0.00 0.02 0.02 83 1026.6
20240620230003 68 79 1.0 4.0 0.00 0.02 0.02 82 1026.6
20240620225504 68 70 1.0 4.0 0.00 0.02 0.02 81 1026.6
20240620225024 69 66 1.0 4.0 0.00 0.02 0.02 81 1026.5
20240620224503 68 45 1.0 5.0 0.00 0.02 0.02 82 1026.6
20240620224003 68 44 1.0 5.0 0.00 0.02 0.02 82 1026.8
20240620223503 68 71 0.0 2.0 0.00 0.02 0.02 84 1026.8
20240620223003 68 76 1.0 4.0 0.00 0.02 0.02 83 1026.6
20240620222503 68 61 2.0 5.0 0.00 0.02 0.02 84 1026.2
20240620222003 67 56 2.0 8.0 0.00 0.02 0.02 84 1026.1
20240620221503 68 65 2.0 8.0 0.00 0.02 0.02 84 1026.0
20240620221004 68 68 2.0 8.0 0.00 0.02 0.02 84 1026.0
20240620220503 68 70 2.0 4.0 0.00 0.02 0.02 84 1025.9
20240620220025 68 72 1.0 4.0 0.00 0.02 0.02 84 1025.9
20240620215503 68 74 1.0 6.0 0.00 0.02 0.02 84 1025.9
20240620215003 67 93 1.0 6.0 0.00 0.02 0.02 85 1026.0
20240620214503 67 117 2.0 6.0 0.00 0.02 0.02 85 1026.2
20240620214024 67 91 2.0 9.0 0.00 0.02 0.02 84 1026.4
20240620213504 66 81 2.0 9.0 0.00 0.02 0.02 85 1026.4
20240620213003 66 102 2.0 6.0 0.00 0.02 0.02 85 1026.3
20240620212524 66 114 2.0 6.0 0.00 0.02 0.02 85 1026.4
20240620212003 66 89 1.0 4.0 0.00 0.02 0.02 86 1027.0
20240620211503 66 75 2.0 7.0 0.00 0.02 0.02 86 1027.3
20240620211003 66 49 2.0 7.0 0.00 0.02 0.02 86 1027.4
20240620210525 66 45 2.0 6.0 0.01 0.02 0.02 87 1027.5
20240620210024 65 59 3.0 6.0 0.01 0.02 0.02 87 1027.4
20240620205525 65 52 2.0 6.0 0.01 0.02 0.02 87 1027.5
20240620205004 65 56 2.0 5.0 0.01 0.02 0.02 87 1027.7
20240620204504 65 55 2.0 5.0 0.01 0.02 0.02 86 1027.9
20240620204003 65 50 2.0 5.0 0.01 0.02 0.02 87 1028.2
20240620203503 65 56 3.0 5.0 0.01 0.02 0.02 87 1028.5
20240620203003 65 53 2.0 5.0 0.01 0.02 0.02 88 1028.6